TimeHST,TemperatureF,Dew PointF,Humidity,Sea Level PressureIn,VisibilityMPH,Wind Direction,Wind SpeedMPH,Gust SpeedMPH,PrecipitationIn,Events,Conditions,WindDirDegrees,DateUTC
12:55 AM,72.3,63.3,73,30.09,10.0,East,8.1,-,N/A,,Scattered Clouds,80,2013-05-15 10:55:00
1:55 AM,72.0,63.3,74,30.07,10.0,East,5.8,-,N/A,,Partly Cloudy,90,2013-05-15 11:55:00
2:55 AM,70.9,63.9,78,30.06,10.0,Calm,Calm,-,N/A,,Overcast,0,2013-05-15 12:55:00
3:55 AM,68.9,64.0,84,30.06,10.0,WNW,3.5,-,N/A,,Overcast,300,2013-05-15 13:55:00
4:55 AM,70.0,63.5,80,30.06,10.0,NW,3.5,-,N/A,,Mostly Cloudy,320,2013-05-15 14:55:00
5:55 AM,71.8,62.8,73,30.06,10.0,ENE,5.8,-,N/A,,Mostly Cloudy,60,2013-05-15 15:55:00
6:55 AM,72.3,63.5,74,30.08,10.0,NE,6.9,-,N/A,,Mostly Cloudy,50,2013-05-15 16:55:00
7:55 AM,73.8,63.9,71,30.10,10.0,East,8.1,-,N/A,,Mostly Cloudy,80,2013-05-15 17:55:00
8:55 AM,75.4,64.0,68,30.11,10.0,ENE,4.6,-,N/A,,Mostly Cloudy,60,2013-05-15 18:55:00
9:55 AM,76.8,63.7,64,30.12,10.0,ENE,6.9,-,N/A,,Mostly Cloudy,60,2013-05-15 19:55:00
10:55 AM,77.9,63.3,61,30.11,10.0,East,11.5,-,N/A,,Overcast,80,2013-05-15 20:55:00
11:55 AM,78.3,63.7,61,30.09,10.0,East,10.4,-,N/A,,Overcast,100,2013-05-15 21:55:00
12:55 PM,77.7,64.0,63,30.08,10.0,ENE,10.4,-,N/A,,Overcast,60,2013-05-15 22:55:00
1:55 PM,78.8,63.7,60,30.08,10.0,East,8.1,-,N/A,,Overcast,80,2013-05-15 23:55:00
2:55 PM,80.2,62.4,54,30.07,10.0,East,13.8,18.4,N/A,,Mostly Cloudy,80,2013-05-16 00:55:00
3:55 PM,78.8,62.8,58,30.07,10.0,East,12.7,-,N/A,,Mostly Cloudy,80,2013-05-16 01:55:00
4:55 PM,75.7,64.2,67,30.08,10.0,ENE,6.9,-,N/A,,Overcast,70,2013-05-16 02:55:00
5:30 PM,75.2,64.4,69,30.09,10.0,NE,8.1,-,N/A,Rain,Light Rain,50,2013-05-16 03:30:00
5:40 PM,75.2,64.4,69,30.08,10.0,NE,8.1,-,N/A,,Mostly Cloudy,40,2013-05-16 03:40:00
5:55 PM,74.1,65.1,73,30.09,10.0,NE,8.1,-,0.00,,Partly Cloudy,50,2013-05-16 03:55:00
6:55 PM,73.4,64.8,74,30.09,10.0,NE,9.2,-,N/A,,Mostly Cloudy,40,2013-05-16 04:55:00
7:55 PM,72.5,65.3,78,30.11,10.0,ENE,8.1,-,N/A,,Scattered Clouds,60,2013-05-16 05:55:00
8:55 PM,72.0,65.5,80,30.12,10.0,East,5.8,-,N/A,,Scattered Clouds,80,2013-05-16 06:55:00
8:57 PM,71.6,66.2,83,30.12,10.0,ENE,8.1,-,N/A,,Light Drizzle,70,2013-05-16 06:57:00
9:09 PM,71.6,66.2,83,30.12,10.0,NE,8.1,-,N/A,,Scattered Clouds,50,2013-05-16 07:09:00
9:55 PM,71.1,65.8,84,30.13,10.0,ENE,9.2,-,0.00,,Scattered Clouds,60,2013-05-16 07:55:00
10:55 PM,71.4,65.3,81,30.13,10.0,ENE,4.6,-,N/A,,Clear,60,2013-05-16 08:55:00
11:35 PM,71.6,66.2,83,30.13,10.0,East,6.9,-,N/A,Rain,Light Rain,80,2013-05-16 09:35:00
11:45 PM,71.6,66.2,83,30.12,10.0,Calm,Calm,-,N/A,,Mostly Cloudy,0,2013-05-16 09:45:00
11:51 PM,69.8,66.2,88,30.12,10.0,ENE,3.5,-,N/A,,Light Drizzle,60,2013-05-16 09:51:00
11:55 PM,70.5,65.8,85,30.12,10.0,ENE,3.5,-,0.00,,Light Drizzle,70,2013-05-16 09:55:00